Change the Weather History Date:

Thursday, November 29, 2012

  Actual Average Record
Temperature  
Mean Temperature 29 °F -  
Max Temperature 38 °F 32 °F 60 °F (1998)
Min Temperature 20 °F 18 °F -9 °F (1976)
Degree Days  
Heating Degree Days 36    
Moisture  
Dew Point 23 °F    
Average Humidity 75    
Maximum Humidity 91    
Minimum Humidity 56    
Precipitation  
Precipitation 0.00 in - - ()
Sea Level Pressure  
Sea Level Pressure 30.12 in    
Wind  
Wind Speed 4 mph (ENE)    
Max Wind Speed 17 mph    
Max Gust Speed 23 mph    
Visibility 10 miles    
Events      
Averages and records for this station are not official NWS values.
T = Trace of Precipitation, MM = Missing Value Source: NWS Daily Summary

Daily Weather History Graph

Daily Weather History Graph

Search for Another Location

Airport or City:

Trip Planner

Search our weather history database for the weather conditions in past years. The results will help you decide how hot, cold, wet, or windy it might be!

Date:

Astronomy

Nov. 29, 2012 Rise Set
Actual Time 7:12 AM CST 4:20 PM CST
Civil Twilight 6:40 AM CST 4:52 PM CST
Nautical Twilight 6:03 AM CST 5:29 PM CST
Astronomical Twilight 5:28 AM CST 6:04 PM CST
Moon 5:22 PM CST (11/29) 7:59 AM CST (11/29)
Length of Visible Light 10h 12m
Length of Day
9h 07m
Full, 99% of the Moon is Illuminated
Nov 29
Full
Dec 6
Last Quarter
Dec 13
New
Dec 19
First Quarter
Dec 28
Full

Hourly Weather History & Observations

Time (CST) Temp. Windchill Dew Point Humidity Pressure Visibility Wind Dir Wind Speed Gust Speed Precip Events Conditions
12:15 AM 25.7 °F - 19.4 °F 77% 30.15 in 10.0 mi Calm Calm - N/A   Clear
12:35 AM 25.9 °F - 19.4 °F 76% 30.15 in 10.0 mi Calm Calm - N/A   Scattered Clouds
12:55 AM 26.1 °F - 19.4 °F 76% 30.14 in 10.0 mi Calm Calm - N/A   Scattered Clouds
1:15 AM 25.5 °F - 19.4 °F 78% 30.14 in 10.0 mi Calm Calm - N/A   Scattered Clouds
1:35 AM 25.5 °F - 19.4 °F 78% 30.14 in 10.0 mi Calm Calm - N/A   Mostly Cloudy
1:55 AM 24.8 °F - 19.8 °F 81% 30.14 in 10.0 mi Calm Calm - N/A   Scattered Clouds
2:15 AM 25.5 °F - 19.4 °F 78% 30.14 in 10.0 mi Calm Calm - N/A   Mostly Cloudy
2:35 AM 25.7 °F 21.5 °F 19.8 °F 78% 30.13 in 10.0 mi South 3.5 mph - N/A   Mostly Cloudy
2:55 AM 26.6 °F 22.6 °F 19.8 °F 75% 30.12 in 10.0 mi South 3.5 mph - N/A   Scattered Clouds
3:15 AM 26.6 °F - 19.9 °F 76% 30.12 in 10.0 mi Calm Calm - N/A   Mostly Cloudy
3:35 AM 27.3 °F - 19.8 °F 73% 30.12 in 10.0 mi Calm Calm - N/A   Mostly Cloudy
3:55 AM 26.2 °F - 19.6 °F 76% 30.12 in 10.0 mi Calm Calm - N/A   Mostly Cloudy
4:15 AM 25.7 °F - 19.9 °F 79% 30.12 in 10.0 mi Calm Calm - N/A   Overcast
4:35 AM 26.1 °F - 19.9 °F 78% 30.10 in 10.0 mi Calm Calm - N/A   Scattered Clouds
4:55 AM 27.1 °F - 20.1 °F 75% 30.10 in 10.0 mi Calm Calm - N/A   Clear
5:15 AM 27.1 °F - 20.1 °F 75% 30.10 in 10.0 mi Calm Calm - N/A   Clear
5:35 AM 26.4 °F - 19.8 °F 76% 30.10 in 10.0 mi Calm Calm - N/A   Mostly Cloudy
5:55 AM 23.4 °F - 18.9 °F 83% 30.11 in 10.0 mi Calm Calm - N/A   Overcast
6:15 AM 22.5 °F - 18.9 °F 86% 30.11 in 10.0 mi Calm Calm - N/A   Scattered Clouds
6:35 AM 23.0 °F - 19.0 °F 85% 30.12 in 10.0 mi Calm Calm - N/A   Clear
6:55 AM 20.8 °F - 18.5 °F 91% 30.11 in 10.0 mi Calm Calm - N/A   Clear
7:15 AM 21.6 °F - 19.0 °F 90% 30.11 in 10.0 mi Calm Calm - N/A   Clear
7:35 AM 20.1 °F - 17.2 °F 89% 30.11 in 7.0 mi Calm Calm - N/A   Clear
7:55 AM 20.3 °F - 17.4 °F 89% 30.11 in 7.0 mi Calm Calm - N/A   Clear
8:15 AM 23.0 °F - 20.3 °F 89% 30.12 in 10.0 mi Calm Calm - N/A   Clear
8:35 AM 26.4 °F - 22.6 °F 86% 30.12 in 7.0 mi Calm Calm - N/A   Clear
8:55 AM 29.1 °F - 22.6 °F 77% 30.12 in 10.0 mi Calm Calm - N/A   Clear
9:15 AM 31.6 °F 28.3 °F 23.2 °F 71% 30.12 in 10.0 mi ENE 3.5 mph - N/A   Clear
9:35 AM 32.4 °F 29.1 °F 23.5 °F 70% 30.13 in 10.0 mi NNE 3.5 mph - N/A   Clear
9:55 AM 33.8 °F 30.8 °F 23.9 °F 67% 30.13 in 10.0 mi NE 3.5 mph - N/A   Clear
10:15 AM 34.2 °F 30.0 °F 23.7 °F 66% 30.13 in 10.0 mi NE 4.6 mph - N/A   Clear
10:35 AM 34.9 °F 29.9 °F 23.5 °F 63% 30.13 in 10.0 mi ENE 5.8 mph - N/A   Clear
10:55 AM 35.6 °F 28.6 °F 23.5 °F 62% 30.12 in 10.0 mi East 9.2 mph - N/A   Clear
11:15 AM 35.2 °F 28.8 °F 23.2 °F 62% 30.11 in 10.0 mi ENE 8.1 mph - N/A   Clear
11:35 AM 36.3 °F 31.6 °F 23.2 °F 59% 30.10 in 10.0 mi East 5.8 mph - N/A   Clear
11:55 AM 37.0 °F 31.6 °F 23.5 °F 58% 30.10 in 10.0 mi ENE 6.9 mph - N/A   Clear
12:15 PM 37.6 °F 30.5 °F 23.7 °F 57% 30.09 in 10.0 mi East 10.4 mph - N/A   Clear
12:35 PM 37.8 °F 32.5 °F 23.7 °F 57% 30.09 in 10.0 mi ESE 6.9 mph - N/A   Clear
12:55 PM 37.9 °F 32.7 °F 23.9 °F 57% 30.08 in 10.0 mi East 6.9 mph - N/A   Clear
1:15 PM 37.8 °F 33.3 °F 23.9 °F 57% 30.09 in 10.0 mi East 5.8 mph - N/A   Clear
1:35 PM 38.5 °F 32.7 °F 24.3 °F 57% 30.08 in 10.0 mi East 8.1 mph - N/A   Clear
1:55 PM 38.3 °F 33.2 °F 24.1 °F 57% 30.08 in 10.0 mi East 6.9 mph - N/A   Clear
2:15 PM 38.7 °F 33.6 °F 24.3 °F 56% 30.08 in 10.0 mi East 6.9 mph - N/A   Clear
2:35 PM 38.3 °F 31.4 °F 24.3 °F 57% 30.08 in 10.0 mi ENE 10.4 mph - N/A   Clear
2:55 PM 37.4 °F 30.8 °F 24.3 °F 59% 30.09 in 10.0 mi East 9.2 mph - N/A   Clear
3:15 PM 36.5 °F 30.3 °F 23.9 °F 60% 30.10 in 10.0 mi East 8.1 mph - N/A   Clear
3:35 PM 35.8 °F 30.1 °F 23.9 °F 62% 30.10 in 10.0 mi East 6.9 mph - N/A   Clear
3:55 PM 35.1 °F 29.3 °F 23.7 °F 63% 30.10 in 10.0 mi ENE 6.9 mph - N/A   Clear
4:15 PM 33.8 °F 27.7 °F 23.2 °F 65% 30.11 in 10.0 mi ENE 6.9 mph - N/A   Clear
4:35 PM 32.7 °F 24.5 °F 22.8 °F 67% 30.11 in 10.0 mi ENE 10.4 mph - N/A   Clear
4:55 PM 32.0 °F 23.6 °F 23.0 °F 69% 30.12 in 10.0 mi ENE 10.4 mph - N/A   Clear
5:15 PM 31.8 °F 22.8 °F 23.4 °F 71% 30.13 in 10.0 mi ENE 11.5 mph - N/A   Clear
5:35 PM 31.1 °F 21.4 °F 23.5 °F 74% 30.13 in 10.0 mi East 12.7 mph - N/A   Clear
5:55 PM 30.6 °F 20.2 °F 24.4 °F 78% 30.13 in 10.0 mi East 13.8 mph 18.4 mph N/A   Clear
6:15 PM 30.2 °F 21.3 °F 24.8 °F 80% 30.15 in 10.0 mi East 10.4 mph 20.7 mph N/A   Clear
6:35 PM 30.0 °F 20.5 °F 25.2 °F 82% 30.15 in 10.0 mi ENE 11.5 mph - N/A   Scattered Clouds
6:55 PM 29.8 °F 19.8 °F 25.2 °F 83% 30.15 in 10.0 mi East 12.7 mph - N/A   Scattered Clouds
7:15 PM 29.8 °F 19.8 °F 25.3 °F 83% 30.14 in 10.0 mi ENE 12.7 mph 18.4 mph N/A   Scattered Clouds
7:35 PM 30.0 °F 21.1 °F 25.5 °F 83% 30.15 in 10.0 mi ENE 10.4 mph - N/A   Overcast
7:55 PM 29.8 °F 20.9 °F 25.5 °F 84% 30.15 in 10.0 mi ENE 10.4 mph 17.3 mph N/A   Overcast
8:15 PM 29.8 °F 19.3 °F 25.5 °F 84% 30.15 in 10.0 mi ENE 13.8 mph 19.6 mph N/A   Overcast
8:35 PM 29.7 °F 19.6 °F 25.3 °F 84% 30.16 in 10.0 mi East 12.7 mph - N/A   Overcast
8:55 PM 29.7 °F 19.6 °F 25.3 °F 84% 30.16 in 10.0 mi East 12.7 mph 16.1 mph N/A   Overcast
9:15 PM 29.3 °F 18.2 °F 25.2 °F 85% 30.16 in 10.0 mi ENE 15.0 mph 19.6 mph N/A   Overcast
9:35 PM 29.3 °F 18.6 °F 25.2 °F 85% 30.16 in 10.0 mi East 13.8 mph 20.7 mph N/A   Overcast
9:55 PM 29.1 °F 18.4 °F 24.8 °F 84% 30.16 in 10.0 mi ENE 13.8 mph - N/A   Overcast
10:15 PM 29.1 °F 17.1 °F 24.8 °F 84% 30.16 in 10.0 mi ENE 17.3 mph 23.0 mph N/A   Overcast
10:35 PM 28.9 °F 19.2 °F 24.8 °F 84% 30.16 in 10.0 mi ENE 11.5 mph 20.7 mph N/A   Overcast
10:55 PM 28.9 °F 18.6 °F 25.3 °F 86% 30.17 in 10.0 mi ENE 12.7 mph 18.4 mph N/A   Overcast
11:15 PM 28.4 °F 17.5 °F 25.2 °F 88% 30.16 in 10.0 mi ENE 13.8 mph 18.4 mph N/A   Overcast
11:35 PM 28.4 °F 18.0 °F 25.5 °F 89% 30.16 in 10.0 mi ENE 12.7 mph 20.7 mph N/A   Overcast
11:55 PM 28.0 °F 16.5 °F 25.5 °F 90% 30.16 in 10.0 mi ENE 15.0 mph 23.0 mph N/A   Overcast